This demonstration page uses our WeatherBlox Daily Observations layout. Learn more.

Left ArrowRight Arrow

39.29038, -76.61219

Hourly Observations for March 19, 2018

Temp ( °F °C ) Dew Point ( °F °C ) Humidity (%) Winds ( mph kmh ) Pressure ( in mb ) Visibility ( mi km ) Precip ( " mm )
12:54 am 00:54 undefined 44 6.7 22 -5.6 41 41 undefined N/A 29.91 1013 N/A 0.00 0.00
1:54 am 01:54 undefined 42 5.6 25 -3.9 51 51 undefined N/A 29.91 1013 N/A 0.00 0.00
2:54 am 02:54 undefined 43 6.1 21 -6.1 42 42 undefined N/A 29.91 1013 N/A 0.00 0.00
3:54 am 03:54 undefined 41 5 23 -5 49 49 undefined N/A 29.90 1012 N/A 0.00 0.00
4:54 am 04:54 undefined 40 4.4 23 -5 51 51 undefined N/A 29.88 1012 N/A 0.00 0.00
5:54 am 05:54 undefined 40 4.4 27 -2.8 60 60 undefined N/A 29.89 1012 N/A 0.00 0.00
6:54 am 06:54 undefined 38 3.3 26 -3.3 62 62 undefined N/A 29.91 1013 N/A 0.00 0.00
7:54 am 07:54 undefined 38 3.3 27 -2.8 65 65 undefined N/A 29.92 1013 N/A 0.00 0.00
8:54 am 08:54 undefined 43 6.1 26 -3.3 51 51 undefined N/A 29.92 1013 N/A 0.00 0.00
9:54 am 09:54 undefined 48 8.9 26 -3.3 42 42 undefined N/A 29.92 1013 N/A 0.00 0.00
10:54 am 10:54 undefined 53 11.7 27 -2.8 37 37 undefined N/A 29.92 1013 N/A 0.00 0.00
11:54 am 11:54 undefined 57 13.9 25 -3.9 29 29 undefined N/A 29.91 1013 N/A 0.00 0.00
12:54 pm 12:54 undefined 58 14.4 28 -2.2 32 32 undefined N/A 29.92 1013 N/A 0.00 0.00
1:54 pm 13:54 undefined 59 15 26 -3.3 28 28 undefined N/A 29.91 1013 N/A 0.00 0.00
2:54 pm 14:54 undefined 59 15 23 -5 25 25 undefined N/A 29.87 1012 N/A 0.00 0.00
3:54 pm 15:54 undefined 59 15 24 -4.4 26 26 undefined N/A 29.87 1011 N/A 0.00 0.00
4:54 pm 16:54 undefined 58 14.4 23 -5 26 26 undefined N/A 29.86 1011 N/A 0.00 0.00
5:54 pm 17:54 undefined 56 13.3 24 -4.4 29 29 undefined N/A 29.86 1011 N/A 0.00 0.00
6:54 pm 18:54 undefined 54 12.2 27 -2.8 35 35 undefined N/A 29.87 1012 N/A 0.00 0.00
7:54 pm 19:54 undefined 48 8.9 35 1.7 61 61 undefined N/A 29.89 1012 N/A 0.00 0.00
8:54 pm 20:54 undefined 46 7.8 34 1.1 63 63 undefined N/A 29.91 1013 N/A 0.00 0.00
9:54 pm 21:54 undefined 44 6.7 34 1.1 68 68 undefined N/A 29.92 1013 N/A 0.00 0.00
10:54 pm 22:54 undefined 42 5.6 33 0.6 71 71 undefined N/A 29.92 1013 N/A 0.00 0.00
11:54 pm 23:54 undefined 41 5 33 0.6 73 73 undefined N/A 29.92 1013 N/A 0.00 0.00

Powered by AerisWeather